STARLINK-3184, 51143

Orbit data source: Space-Track

STARLINK-3184, 51143 is a payload satellite owned by SpaceX/Seattle (US) in LEO that was launched on Wed, 19 Jan 2022 UTC via an FALCON 9 launch vehicle from the Air Force Eastern Test Range (AFETR). Payload-class satellites include a variety of spacecraft equipped with specific instruments for various scientific and technological missions. These include communications satellites like Starlink; space stations such as the ISS; scientific satellites like the Hubble; Earth observation satellites from companies like Planet Labs, Umbra, and HawkEye 360; GPS; miniature CubeSats for education and research; and military/defense satellites.

Loading next visibility...
Identifier
51143, 2022-005AR
Orbit
LEO
Country
Flag of USUS
Related business
Manufacturer
SpaceX/Seattle
Mission
Operational Commercial Communications
Bus & Motor
STARLINK, Unknown motor
Mass
297 kg wet, ~275 kg dry
Launch date (UTC)
2022-01-19 (4 years ago)
Launch vehicle
FALCON 9
Launch site
Air Force Eastern Test Range (AFETR)
Object type
Payload
Rocket body
Debris
Shape & HBR
Box + 1 Pan, 10.1 m
Radar Cross Section
13.562 m², Large (>1 m²)

Expand to show TLE details & history
Last TLE update: 11 hours ago

TLE from 11 hours ago
0 STARLINK-3184
1 51143U 22005AR  26094.25484792  .00001828  00000-0  13301-3 0  9995
2 51143  53.2159 194.3534 0001291  79.6124 280.5013 15.08821270232451
Epoch: 2026-04-04T06:06Z
TLE epoch observation values (Epoch: 2026-04-04T06:06:58.860Z)
Latitude
-0.00006°
Longitude
-89.96915°
Altitude
540.535 km
Speed
7.593 km/s
True Right ascension
12h 57m 24s
True Declination
0° 00' 00"
Sunlit
Object was in full shadow at epoch
Visualization orbit readout
Latitude
Unknown
Longitude
Unknown
Altitude
Unknown
Speed
Unknown
Apparent Right ascension
Unknown
Apparent Declination
Unknown
Sunlit
N/A
Visualization observer readout
Local Sidereal Time
22:29:29
Azimuth
Unknown
Elevation
Unknown
Doppler factor
Unknown
Orbital elements
Apogee altitude
540.939 km
Perigee altitude
539.153 km
Semi-major axis
6,918.183 km
Eccentricity
0.00013
Inclination
53.2159°
RAAN
194.3534°
Arg. of periapsis
79.6124°
True anomaly
280.48675°
Mean anomaly
280.5013°
Eccentric anomaly
280.49403°
Mean motion
3.77186 °/min
Orbital period
95.44 mins
BSTAR
0.00013301
Loading maneuver chart data...
Computing Atmospheric mass density...
Loading historical data...
Loading historical data...
Loading historical data...
Loading historical data...
Loading historical data...
Loading historical data...
Loading historical data...

Documentation

Showing up to 5 results
|